LLM88 UUEE-USRK

Flight info

Callsign LLM88
Flight time 2h 48m
Altitude 35000
Route K0835F350 DCT RILPO T753 AGBIR T783 BALOB N155 NIPRA T631 URMAN B229 KANAL DCT
Aircraft A320/M-SDE3FGHIRWY/LB1

Departure

Time 2026-04-26 15:22
Airport Sheremetyevo International Airport (UUEE)

Arrival

Time 2026-04-26 18:10
Airport Kogalym International Airport (USRK)
Time Latitude Longitude Altitude Speed Heading
2026-04-26 14:56 55.97995 37.41854 637 ft 0 kts 255°
2026-04-26 15:10 55.97996 37.41864 637 ft 2 kts 280°
2026-04-26 15:11 55.97995 37.41887 637 ft 2 kts 250°
2026-04-26 15:11 55.97998 37.41904 637 ft 1 kts 253°
2026-04-26 15:11 55.98003 37.41928 637 ft 2 kts 233°
2026-04-26 15:11 55.98014 37.41948 637 ft 2 kts 216°
2026-04-26 15:12 55.98027 37.41960 637 ft 2 kts 195°
2026-04-26 15:12 55.98042 37.41964 637 ft 2 kts 176°
2026-04-26 15:12 55.98050 37.41962 637 ft 1 kts 165°
2026-04-26 15:12 55.98055 37.41959 637 ft 0 kts 164°
2026-04-26 15:16 55.98054 37.41959 637 ft 1 kts 164°
2026-04-26 15:16 55.97982 37.41999 637 ft 17 kts 166°
2026-04-26 15:16 55.97867 37.42053 637 ft 16 kts 164°
2026-04-26 15:16 55.97756 37.42104 637 ft 16 kts 165°
2026-04-26 15:17 55.97686 37.42188 637 ft 11 kts 93°
2026-04-26 15:17 55.97699 37.42280 637 ft 11 kts 75°
2026-04-26 15:17 55.97726 37.42466 637 ft 11 kts 74°
2026-04-26 15:17 55.97749 37.42606 637 ft 11 kts 73°
2026-04-26 15:18 55.97767 37.42725 637 ft 7 kts 75°
2026-04-26 15:18 55.97741 37.42791 637 ft 7 kts 159°
2026-04-26 15:18 55.97731 37.42796 637 ft 0 kts 166°
2026-04-26 15:20 55.97729 37.42796 637 ft 1 kts 166°
2026-04-26 15:20 55.97666 37.42825 637 ft 11 kts 156°
2026-04-26 15:20 55.97606 37.42840 637 ft 6 kts 236°
2026-04-26 15:20 55.97599 37.42796 637 ft 2 kts 256°
2026-04-26 15:21 55.97598 37.42790 637 ft 0 kts 256°
2026-04-26 15:21 55.97589 37.42727 637 ft 24 kts 255°
2026-04-26 15:21 55.97483 37.42017 637 ft 91 kts 255°
2026-04-26 15:21 55.97267 37.40575 637 ft 148 kts 256°
2026-04-26 15:22 55.96972 37.38599 908 ft 172 kts 256°
2026-04-26 15:22 55.96614 37.36550 1456 ft 177 kts 254°
2026-04-26 15:22 55.96237 37.34447 2037 ft 184 kts 258°
2026-04-26 15:22 55.95885 37.32153 2437 ft 197 kts 260°
2026-04-26 15:23 55.95524 37.29738 2819 ft 207 kts 260°
2026-04-26 15:23 55.95145 37.27249 3328 ft 211 kts 261°
2026-04-26 15:23 55.94758 37.24721 3840 ft 215 kts 260°
2026-04-26 15:23 55.94360 37.22141 4354 ft 219 kts 260°
2026-04-26 15:24 55.93948 37.19507 4856 ft 224 kts 259°
2026-04-26 15:24 55.93529 37.16827 5339 ft 230 kts 259°
2026-04-26 15:24 55.93088 37.14032 5836 ft 235 kts 258°
2026-04-26 15:24 55.92644 37.11209 6321 ft 241 kts 258°
2026-04-26 15:25 55.92179 37.08255 6585 ft 260 kts 258°
2026-04-26 15:25 55.91845 37.06118 6814 ft 271 kts 257°
2026-04-26 15:25 55.91690 37.01649 7300 ft 283 kts 290°
2026-04-26 15:25 55.92642 36.98635 7966 ft 280 kts 317°
2026-04-26 15:26 55.94162 36.96528 8566 ft 282 kts 329°
2026-04-26 15:26 55.95804 36.94578 9128 ft 289 kts 328°
2026-04-26 15:26 55.97516 36.92580 9639 ft 296 kts 335°
2026-04-26 15:26 55.99470 36.91589 10153 ft 295 kts
2026-04-26 15:27 56.01437 36.92379 10667 ft 290 kts 32°
2026-04-26 15:27 56.03122 36.94299 11107 ft 292 kts 39°
2026-04-26 15:27 56.04810 36.96392 11544 ft 298 kts 39°
2026-04-26 15:27 56.06532 36.98488 12039 ft 304 kts 38°
2026-04-26 15:28 56.08305 37.00605 12514 ft 310 kts 38°
2026-04-26 15:28 56.10113 37.02735 12970 ft 315 kts 39°
2026-04-26 15:28 56.11694 37.05351 13385 ft 309 kts 62°
2026-04-26 15:28 56.12592 37.08775 13681 ft 307 kts 81°
2026-04-26 15:29 56.13106 37.12520 13907 ft 317 kts 83°
2026-04-26 15:29 56.13605 37.16424 14139 ft 327 kts 83°
2026-04-26 15:29 56.14691 37.24408 14358 ft 333 kts 82°
2026-04-26 15:30 56.15944 37.32458 14362 ft 339 kts 73°
2026-04-26 15:30 56.16967 37.36250 14432 ft 348 kts 64°
2026-04-26 15:30 56.18303 37.39933 14847 ft 354 kts 60°
2026-04-26 15:31 56.19702 37.43554 15282 ft 355 kts 60°
2026-04-26 15:31 56.22514 37.50861 15369 ft 356 kts 61°
2026-04-26 15:31 56.23921 37.54541 15405 ft 360 kts 60°
2026-04-26 15:32 56.25824 37.59541 15958 ft 364 kts 61°
2026-04-26 15:32 56.28203 37.65792 16349 ft 366 kts 62°
2026-04-26 15:32 56.29641 37.69555 16356 ft 366 kts 59°
2026-04-26 15:33 56.31176 37.73172 16367 ft 371 kts 56°
2026-04-26 15:33 56.32839 37.76786 16729 ft 376 kts 54°
2026-04-26 15:33 56.34523 37.80380 17199 ft 377 kts 54°
2026-04-26 15:33 56.36206 37.83981 17344 ft 379 kts 54°
2026-04-26 15:34 56.37925 37.87606 17340 ft 381 kts 50°
2026-04-26 15:34 56.40072 37.90357 17338 ft 390 kts 24°
2026-04-26 15:34 56.42719 37.91429 17477 ft 399 kts
2026-04-26 15:34 56.45524 37.91725 17768 ft 407 kts
2026-04-26 15:35 56.48352 37.91974 18154 ft 411 kts
2026-04-26 15:35 56.51200 37.92268 18608 ft 413 kts
2026-04-26 15:35 56.54057 37.92612 19115 ft 413 kts
2026-04-26 15:35 56.56927 37.92990 19524 ft 416 kts
2026-04-26 15:36 56.59818 37.93386 19916 ft 420 kts
2026-04-26 15:36 56.62739 37.93789 20317 ft 422 kts
2026-04-26 15:36 56.65666 37.94194 20702 ft 426 kts
2026-04-26 15:36 56.68564 37.95215 21036 ft 431 kts 20°
2026-04-26 15:37 56.71168 37.97829 21404 ft 430 kts 41°
2026-04-26 15:37 56.73332 38.01509 21797 ft 429 kts 49°
2026-04-26 15:37 56.75424 38.05448 22117 ft 433 kts 50°
2026-04-26 15:37 56.77505 38.09375 22464 ft 436 kts 49°
2026-04-26 15:38 56.79635 38.13319 22786 ft 440 kts 48°
2026-04-26 15:38 56.81810 38.17275 23104 ft 444 kts 47°
2026-04-26 15:38 56.83993 38.21212 23423 ft 447 kts 47°
2026-04-26 15:38 56.86216 38.25212 23729 ft 451 kts 46°
2026-04-26 15:39 56.88529 38.29109 24027 ft 455 kts 43°
2026-04-26 15:39 56.90916 38.32877 24357 ft 458 kts 41°
2026-04-26 15:39 56.93357 38.36670 24644 ft 462 kts 41°
2026-04-26 15:39 56.94147 38.37895 24737 ft 462 kts 41°
2026-04-26 15:40 56.98245 38.44274 25252 ft 467 kts 41°
2026-04-26 15:40 57.00710 38.48138 25546 ft 470 kts 41°
2026-04-26 15:40 57.03183 38.52027 25828 ft 473 kts 41°
2026-04-26 15:40 57.05692 38.55983 26144 ft 475 kts 41°
2026-04-26 15:41 57.08188 38.59932 26442 ft 478 kts 41°
2026-04-26 15:41 57.10709 38.63922 26726 ft 481 kts 41°
2026-04-26 15:41 57.13254 38.67956 26973 ft 483 kts 41°
2026-04-26 15:41 57.15797 38.72008 27223 ft 485 kts 41°
2026-04-26 15:42 57.18310 38.76015 27461 ft 487 kts 41°
2026-04-26 15:42 57.20871 38.80098 27707 ft 490 kts 41°
2026-04-26 15:42 57.23459 38.84232 27945 ft 492 kts 41°
2026-04-26 15:42 57.26026 38.88355 28231 ft 492 kts 41°
2026-04-26 15:43 57.28600 38.92487 28471 ft 493 kts 41°
2026-04-26 15:43 57.31192 38.96657 28689 ft 494 kts 41°
2026-04-26 15:43 57.36341 39.04966 29056 ft 495 kts 41°
2026-04-26 15:44 57.38942 39.09174 29208 ft 499 kts 41°
2026-04-26 15:44 57.44134 39.17603 29645 ft 501 kts 41°
2026-04-26 15:44 57.46748 39.21862 29854 ft 503 kts 41°
2026-04-26 15:45 57.51997 39.30416 30240 ft 504 kts 40°
2026-04-26 15:45 57.54644 39.34724 30387 ft 506 kts 40°
2026-04-26 15:46 57.59941 39.43364 30732 ft 509 kts 40°
2026-04-26 15:46 57.62579 39.47690 30916 ft 511 kts 40°
2026-04-26 15:46 57.65228 39.52044 31103 ft 512 kts 40°
2026-04-26 15:46 57.66111 39.53500 31168 ft 513 kts 40°
2026-04-26 15:47 57.70558 39.60835 31454 ft 514 kts 40°
2026-04-26 15:47 57.75889 39.69648 31812 ft 510 kts 41°
2026-04-26 15:47 57.78548 39.74068 31965 ft 507 kts 41°
2026-04-26 15:48 57.81174 39.78446 32100 ft 507 kts 41°
2026-04-26 15:48 57.83779 39.82785 32273 ft 505 kts 41°
2026-04-26 15:48 57.86370 39.87117 32425 ft 502 kts 41°
2026-04-26 15:48 57.88961 39.91464 32556 ft 500 kts 42°
2026-04-26 15:49 57.91540 39.95822 32665 ft 500 kts 42°
2026-04-26 15:49 57.94099 40.00158 32801 ft 500 kts 41°
2026-04-26 15:49 57.96684 40.04552 32904 ft 499 kts 42°
2026-04-26 15:50 58.01811 40.13273 33092 ft 498 kts 42°
2026-04-26 15:50 58.04355 40.17629 33200 ft 497 kts 42°
2026-04-26 15:50 58.06905 40.21993 33277 ft 497 kts 42°
2026-04-26 15:51 58.11982 40.30754 33464 ft 496 kts 44°
2026-04-26 15:51 58.16643 40.40297 33627 ft 494 kts 52°
2026-04-26 15:52 58.20579 40.50840 33835 ft 492 kts 60°
2026-04-26 15:52 58.24046 40.61954 34091 ft 491 kts 61°
2026-04-26 15:52 58.25182 40.65666 34209 ft 491 kts 62°
2026-04-26 15:53 58.27461 40.73091 34331 ft 492 kts 62°
2026-04-26 15:53 58.29188 40.78711 34438 ft 492 kts 62°
2026-04-26 15:53 58.30906 40.84298 34454 ft 492 kts 61°
2026-04-26 15:54 58.34351 40.95505 34450 ft 493 kts 61°
2026-04-26 15:54 58.37782 41.06715 34469 ft 493 kts 61°
2026-04-26 15:55 58.41224 41.18018 34457 ft 494 kts 61°
2026-04-26 15:55 58.44643 41.29290 34455 ft 493 kts 61°
2026-04-26 15:56 58.48049 41.40594 34463 ft 494 kts 61°
2026-04-26 15:56 58.51456 41.51942 34479 ft 494 kts 61°
2026-04-26 15:57 58.54842 41.63274 34468 ft 494 kts 61°
2026-04-26 15:57 58.58217 41.74627 34471 ft 494 kts 62°
2026-04-26 15:58 58.61590 41.86043 34475 ft 493 kts 62°
2026-04-26 15:58 58.64946 41.97452 34477 ft 493 kts 62°
2026-04-26 15:59 58.68294 42.08894 34476 ft 494 kts 62°
2026-04-26 15:59 58.71627 42.20333 34475 ft 494 kts 62°
2026-04-26 16:00 58.74959 42.31831 34485 ft 493 kts 62°
2026-04-26 16:00 58.78274 42.43333 34478 ft 494 kts 62°
2026-04-26 16:01 58.81603 42.54862 34482 ft 495 kts 62°
2026-04-26 16:01 58.84917 42.66410 34463 ft 494 kts 63°
2026-04-26 16:02 58.88227 42.78012 34482 ft 494 kts 63°
2026-04-26 16:02 58.91517 42.89607 34481 ft 495 kts 63°
2026-04-26 16:03 58.94810 43.01286 34480 ft 495 kts 63°
2026-04-26 16:03 58.98070 43.12895 34476 ft 495 kts 63°
2026-04-26 16:04 59.01356 43.24667 34480 ft 496 kts 62°
2026-04-26 16:04 59.04603 43.36345 34481 ft 496 kts 62°
2026-04-26 16:05 59.07840 43.48064 34494 ft 496 kts 62°
2026-04-26 16:05 59.11080 43.59846 34499 ft 496 kts 62°
2026-04-26 16:06 59.14324 43.71705 34497 ft 496 kts 63°
2026-04-26 16:06 59.17529 43.83480 34506 ft 496 kts 63°
2026-04-26 16:07 59.20741 43.95352 34511 ft 496 kts 63°
2026-04-26 16:07 59.23926 44.07202 34522 ft 496 kts 63°
2026-04-26 16:08 59.26912 44.19289 34524 ft 495 kts 69°
2026-04-26 16:08 59.29395 44.31785 34525 ft 495 kts 70°
2026-04-26 16:09 59.31811 44.44344 34530 ft 496 kts 70°
2026-04-26 16:09 59.34223 44.56891 34542 ft 496 kts 70°
2026-04-26 16:10 59.36643 44.69507 34553 ft 496 kts 71°
2026-04-26 16:10 59.39041 44.82088 34561 ft 496 kts 71°
2026-04-26 16:11 59.41439 44.94740 34563 ft 495 kts 71°
2026-04-26 16:11 59.43817 45.07374 34565 ft 496 kts 71°
2026-04-26 16:12 59.46178 45.20015 34576 ft 495 kts 70°
2026-04-26 16:12 59.49706 45.39041 34593 ft 494 kts 71°
2026-04-26 16:13 59.52031 45.51659 34598 ft 495 kts 70°
2026-04-26 16:13 59.54527 45.64281 34600 ft 495 kts 69°
2026-04-26 16:14 59.57021 45.76774 34608 ft 495 kts 70°
2026-04-26 16:15 59.60725 45.95649 34614 ft 494 kts 70°
2026-04-26 16:15 59.63168 46.08240 34621 ft 494 kts 70°
2026-04-26 16:16 59.66826 46.27241 34625 ft 495 kts 70°
2026-04-26 16:16 59.69246 46.39913 34631 ft 495 kts 69°
2026-04-26 16:17 59.71654 46.52609 34633 ft 494 kts 69°
2026-04-26 16:17 59.74037 46.65255 34637 ft 494 kts 70°
2026-04-26 16:18 59.77607 46.84358 34638 ft 495 kts 70°
2026-04-26 16:19 59.81146 47.03503 34645 ft 494 kts 70°
2026-04-26 16:20 59.84654 47.22644 34643 ft 495 kts 70°
2026-04-26 16:20 59.88144 47.41861 34649 ft 495 kts 70°
2026-04-26 16:21 59.90454 47.54710 34659 ft 495 kts 70°
2026-04-26 16:21 59.92745 47.67548 34669 ft 494 kts 71°
2026-04-26 16:22 59.95027 47.80434 34669 ft 494 kts 71°
2026-04-26 16:22 59.97296 47.93264 34665 ft 494 kts 71°
2026-04-26 16:23 59.99589 48.06194 34677 ft 494 kts 71°
2026-04-26 16:23 60.01855 48.19093 34684 ft 494 kts 70°
2026-04-26 16:24 60.04095 48.31937 34673 ft 494 kts 71°
2026-04-26 16:24 60.06340 48.44915 34684 ft 495 kts 70°
2026-04-26 16:25 60.08559 48.57830 34695 ft 495 kts 70°
2026-04-26 16:25 60.10778 48.70832 34700 ft 494 kts 71°
2026-04-26 16:26 60.12612 48.81656 34711 ft 495 kts 71°
2026-04-26 16:26 60.15164 48.96830 34713 ft 494 kts 71°
2026-04-26 16:27 60.17349 49.09922 34715 ft 494 kts 71°
2026-04-26 16:27 60.19509 49.22967 34714 ft 494 kts 71°
2026-04-26 16:28 60.21532 49.36024 34728 ft 494 kts 72°
2026-04-26 16:28 60.23499 49.49178 34739 ft 492 kts 72°
2026-04-26 16:29 60.25456 49.62326 34729 ft 492 kts 72°
2026-04-26 16:29 60.27404 49.75465 34738 ft 492 kts 73°
2026-04-26 16:30 60.29342 49.88638 34750 ft 491 kts 73°
2026-04-26 16:30 60.31258 50.01751 34754 ft 491 kts 73°
2026-04-26 16:31 60.33166 50.14920 34751 ft 491 kts 72°
2026-04-26 16:31 60.35059 50.28091 34754 ft 490 kts 73°
2026-04-26 16:32 60.36620 50.39039 34758 ft 490 kts 72°
2026-04-26 16:32 60.38803 50.54455 34770 ft 490 kts 72°
2026-04-26 16:33 60.40653 50.67650 34770 ft 490 kts 73°
2026-04-26 16:33 60.42481 50.80796 34773 ft 490 kts 73°
2026-04-26 16:34 60.44306 50.94024 34779 ft 490 kts 73°
2026-04-26 16:34 60.46111 51.07240 34793 ft 490 kts 73°
2026-04-26 16:35 60.47915 51.20502 34782 ft 490 kts 73°
2026-04-26 16:35 60.49714 51.33724 34793 ft 489 kts 73°
2026-04-26 16:36 60.51503 51.47014 34782 ft 489 kts 73°
2026-04-26 16:36 60.53272 51.60297 34769 ft 488 kts 73°
2026-04-26 16:37 60.55016 51.73478 34785 ft 488 kts 73°
2026-04-26 16:37 60.56481 51.84593 34787 ft 488 kts 73°
2026-04-26 16:38 60.58492 51.99985 34775 ft 487 kts 73°
2026-04-26 16:38 60.60213 52.13303 34784 ft 487 kts 73°
2026-04-26 16:39 60.61912 52.26565 34788 ft 487 kts 73°
2026-04-26 16:39 60.63600 52.39877 34776 ft 487 kts 73°
2026-04-26 16:40 60.65271 52.53166 34771 ft 487 kts 73°
2026-04-26 16:40 60.66924 52.66425 34786 ft 487 kts 75°
2026-04-26 16:41 60.68574 52.79783 34786 ft 486 kts 75°
2026-04-26 16:41 60.70206 52.93116 34784 ft 486 kts 75°
2026-04-26 16:42 60.71817 53.06399 34797 ft 486 kts 74°
2026-04-26 16:42 60.73428 53.19790 34799 ft 486 kts 74°
2026-04-26 16:43 60.75012 53.33107 34785 ft 485 kts 74°
2026-04-26 16:43 60.76581 53.46420 34784 ft 484 kts 75°
2026-04-26 16:44 60.78134 53.59739 34784 ft 484 kts 74°
2026-04-26 16:44 60.79736 53.73131 34778 ft 484 kts 75°
2026-04-26 16:45 60.81338 53.86363 34785 ft 483 kts 75°
2026-04-26 16:45 60.82927 53.99673 34781 ft 483 kts 75°
2026-04-26 16:46 60.84501 54.12992 34789 ft 482 kts 75°
2026-04-26 16:46 60.86060 54.26344 34794 ft 482 kts 75°
2026-04-26 16:47 60.87595 54.39612 34786 ft 481 kts 75°
2026-04-26 16:47 60.89125 54.52956 34783 ft 481 kts 75°
2026-04-26 16:48 60.90626 54.66183 34784 ft 480 kts 76°
2026-04-26 16:48 60.92128 54.79536 34775 ft 480 kts 76°
2026-04-26 16:49 60.93605 54.92806 34796 ft 480 kts 76°
2026-04-26 16:49 60.95075 55.06142 34781 ft 480 kts 76°
2026-04-26 16:50 60.96532 55.19492 34790 ft 479 kts 76°
2026-04-26 16:50 60.97968 55.32778 34793 ft 479 kts 76°
2026-04-26 16:51 60.99396 55.46126 34803 ft 478 kts 76°
2026-04-26 16:51 61.00804 55.59422 34790 ft 478 kts 76°
2026-04-26 16:52 61.01737 55.68307 34789 ft 478 kts 77°
2026-04-26 16:52 61.03579 55.86030 34794 ft 478 kts 77°
2026-04-26 16:53 61.04955 55.99430 34791 ft 477 kts 76°
2026-04-26 16:53 61.06305 56.12723 34797 ft 477 kts 77°
2026-04-26 16:54 61.07650 56.26095 34791 ft 477 kts 77°
2026-04-26 16:54 61.08980 56.39471 34796 ft 477 kts 77°
2026-04-26 16:55 61.10294 56.52842 34797 ft 477 kts 77°
2026-04-26 16:55 61.11601 56.66271 34801 ft 478 kts 78°
2026-04-26 16:56 61.13525 56.86327 34790 ft 478 kts 78°
2026-04-26 16:57 61.14794 56.99755 34789 ft 478 kts 78°
2026-04-26 16:57 61.16732 57.19927 34791 ft 478 kts 75°
2026-04-26 16:58 61.17897 57.28704 34784 ft 477 kts 71°
2026-04-26 16:59 61.21491 57.52734 34782 ft 477 kts 71°
2026-04-26 17:00 61.25349 57.78972 34777 ft 478 kts 72°
2026-04-26 17:00 61.28215 57.98779 34779 ft 478 kts 72°
2026-04-26 17:01 61.30103 58.11959 34770 ft 478 kts 72°
2026-04-26 17:01 61.31977 58.25157 34777 ft 478 kts 72°
2026-04-26 17:02 61.33836 58.38351 34771 ft 478 kts 72°
2026-04-26 17:02 61.35685 58.51569 34769 ft 478 kts 72°
2026-04-26 17:03 61.37527 58.64852 34767 ft 478 kts 72°
2026-04-26 17:03 61.39346 58.78073 34754 ft 478 kts 73°
2026-04-26 17:04 61.41157 58.91364 34746 ft 478 kts 73°
2026-04-26 17:04 61.42948 59.04610 34737 ft 478 kts 72°
2026-04-26 17:05 61.44734 59.17923 34726 ft 478 kts 73°
2026-04-26 17:05 61.46508 59.31260 34717 ft 478 kts 73°
2026-04-26 17:06 61.48267 59.44606 34717 ft 477 kts 73°
2026-04-26 17:06 61.50004 59.57892 34709 ft 477 kts 73°
2026-04-26 17:07 61.51734 59.71249 34671 ft 477 kts 73°
2026-04-26 17:07 61.53445 59.84571 34650 ft 476 kts 74°
2026-04-26 17:08 61.55143 59.97919 34688 ft 476 kts 74°
2026-04-26 17:08 61.56851 60.11355 34717 ft 476 kts 73°
2026-04-26 17:09 61.57972 60.20216 34727 ft 476 kts 73°
2026-04-26 17:09 61.60210 60.38076 34728 ft 476 kts 73°
2026-04-26 17:10 61.61864 60.51435 34727 ft 476 kts 73°
2026-04-26 17:10 61.63508 60.64834 34727 ft 475 kts 74°
2026-04-26 17:11 61.65135 60.78219 34730 ft 475 kts 75°
2026-04-26 17:11 61.66751 60.91656 34722 ft 475 kts 75°
2026-04-26 17:12 61.69160 61.11793 34713 ft 475 kts 75°
2026-04-26 17:13 61.71550 61.31864 34714 ft 475 kts 75°
2026-04-26 17:14 61.73923 61.52116 34711 ft 475 kts 75°
2026-04-26 17:14 61.76252 61.72289 34704 ft 475 kts 76°
2026-04-26 17:15 61.78560 61.92571 34691 ft 475 kts 76°
2026-04-26 17:16 61.80073 62.06036 34689 ft 475 kts 76°
2026-04-26 17:16 61.81585 62.19609 34680 ft 475 kts 76°
2026-04-26 17:17 61.83077 62.33144 34678 ft 475 kts 76°
2026-04-26 17:17 61.84552 62.46664 34670 ft 476 kts 76°
2026-04-26 17:18 61.86026 62.60305 34671 ft 475 kts 76°
2026-04-26 17:18 61.87476 62.73865 34668 ft 476 kts 77°
2026-04-26 17:19 61.89635 62.94322 34661 ft 476 kts 77°
2026-04-26 17:19 61.91048 63.07908 34661 ft 476 kts 77°
2026-04-26 17:20 61.91990 63.17044 34659 ft 476 kts 77°
2026-04-26 17:20 61.93257 63.35488 34659 ft 475 kts 86°
2026-04-26 17:21 61.93475 63.49451 34661 ft 475 kts 89°
2026-04-26 17:21 61.93614 63.63338 34661 ft 475 kts 89°
2026-04-26 17:22 61.93751 63.77310 34660 ft 475 kts 90°
2026-04-26 17:22 61.93879 63.91262 34659 ft 475 kts 90°
2026-04-26 17:23 61.93995 64.05225 34657 ft 474 kts 90°
2026-04-26 17:23 61.94097 64.19138 34653 ft 474 kts 90°
2026-04-26 17:24 61.94185 64.33061 34649 ft 474 kts 90°
2026-04-26 17:24 61.94257 64.46935 34651 ft 473 kts 90°
2026-04-26 17:25 61.94317 64.60908 34645 ft 473 kts 90°
2026-04-26 17:25 61.94361 64.74833 34643 ft 473 kts 91°
2026-04-26 17:26 61.94344 64.88650 34642 ft 472 kts 94°
2026-04-26 17:26 61.93845 65.02535 34648 ft 472 kts 96°
2026-04-26 17:27 61.93239 65.16346 34649 ft 471 kts 96°
2026-04-26 17:27 61.92623 65.30098 34648 ft 471 kts 96°
2026-04-26 17:28 61.91999 65.43812 34646 ft 471 kts 96°
2026-04-26 17:28 61.91359 65.57595 34646 ft 471 kts 97°
2026-04-26 17:29 61.90928 65.66729 34645 ft 471 kts 97°
2026-04-26 17:29 61.90042 65.85104 34647 ft 470 kts 98°
2026-04-26 17:30 61.89366 65.98772 34648 ft 470 kts 98°
2026-04-26 17:30 61.88670 66.12568 34651 ft 470 kts 98°
2026-04-26 17:31 61.87968 66.26193 34647 ft 470 kts 98°
2026-04-26 17:31 61.87249 66.39893 34647 ft 470 kts 98°
2026-04-26 17:32 61.86514 66.53629 34646 ft 469 kts 98°
2026-04-26 17:32 61.85772 66.67252 34641 ft 469 kts 99°
2026-04-26 17:33 61.85015 66.80879 34642 ft 468 kts 99°
2026-04-26 17:34 61.83852 67.01329 34643 ft 468 kts 99°
2026-04-26 17:34 61.83062 67.14938 34641 ft 468 kts 99°
2026-04-26 17:35 61.82259 67.28531 34643 ft 468 kts 99°
2026-04-26 17:35 61.81444 67.42075 34642 ft 468 kts 99°
2026-04-26 17:36 61.80613 67.55679 34641 ft 468 kts 100°
2026-04-26 17:36 61.79771 67.69203 34636 ft 468 kts 101°
2026-04-26 17:37 61.78915 67.82720 34633 ft 467 kts 101°
2026-04-26 17:37 61.78078 67.96312 34634 ft 468 kts 99°
2026-04-26 17:38 61.77891 68.16864 34632 ft 472 kts 89°
2026-04-26 17:38 61.78697 68.30615 34635 ft 475 kts 83°
2026-04-26 17:39 61.79695 68.41981 34641 ft 476 kts 82°
2026-04-26 17:39 61.81113 68.58027 34633 ft 476 kts 82°
2026-04-26 17:40 61.81906 68.67166 34637 ft 476 kts 83°
2026-04-26 17:40 61.83460 68.85411 34641 ft 477 kts 83°
2026-04-26 17:41 61.84611 68.99171 34634 ft 476 kts 83°
2026-04-26 17:41 61.85750 69.12952 34630 ft 477 kts 84°
2026-04-26 17:42 61.86874 69.26743 34633 ft 478 kts 84°
2026-04-26 17:42 61.87985 69.40540 34631 ft 478 kts 84°
2026-04-26 17:43 61.89084 69.54385 34642 ft 478 kts 84°
2026-04-26 17:43 61.90165 69.68175 34629 ft 479 kts 85°
2026-04-26 17:44 61.91243 69.82111 34631 ft 479 kts 85°
2026-04-26 17:44 61.92298 69.95959 34628 ft 479 kts 85°
2026-04-26 17:45 61.93344 70.09843 34633 ft 480 kts 85°
2026-04-26 17:45 61.94382 70.23843 34626 ft 480 kts 85°
2026-04-26 17:46 61.95401 70.37779 34623 ft 480 kts 85°
2026-04-26 17:46 61.96405 70.51726 34498 ft 480 kts 85°
2026-04-26 17:47 61.96904 70.58695 34035 ft 477 kts 86°
2026-04-26 17:47 61.97065 70.60961 33861 ft 477 kts 86°
2026-04-26 17:47 61.97882 70.72545 32842 ft 480 kts 88°
2026-04-26 17:47 61.98368 70.79526 32190 ft 483 kts 88°
2026-04-26 17:48 61.98858 70.86652 31518 ft 486 kts 89°
2026-04-26 17:48 61.99339 70.93672 30981 ft 484 kts 89°
2026-04-26 17:48 61.99817 71.00655 30478 ft 482 kts 89°
2026-04-26 17:48 62.00299 71.07699 29929 ft 480 kts 90°
2026-04-26 17:49 62.00770 71.14677 29413 ft 477 kts 90°
2026-04-26 17:49 62.01230 71.21534 29038 ft 470 kts 90°
2026-04-26 17:49 62.01685 71.28381 28620 ft 465 kts 90°
2026-04-26 17:49 62.02130 71.35150 28183 ft 461 kts 90°
2026-04-26 17:50 62.02563 71.41825 27712 ft 457 kts 91°
2026-04-26 17:50 62.02991 71.48447 27100 ft 458 kts 91°
2026-04-26 17:50 62.03422 71.55202 26126 ft 464 kts 90°
2026-04-26 17:50 62.03851 71.61951 25577 ft 466 kts 90°
2026-04-26 17:51 62.04284 71.68756 25120 ft 464 kts 91°
2026-04-26 17:51 62.04718 71.75565 24617 ft 461 kts 91°
2026-04-26 17:51 62.05136 71.82311 24082 ft 468 kts 91°
2026-04-26 17:51 62.05556 71.89162 23549 ft 468 kts 91°
2026-04-26 17:52 62.05974 71.95998 23102 ft 463 kts 91°
2026-04-26 17:52 62.06381 72.02737 22513 ft 461 kts 91°
2026-04-26 17:52 62.06787 72.09457 21958 ft 457 kts 90°
2026-04-26 17:52 62.07185 72.16117 21432 ft 453 kts 90°
2026-04-26 17:53 62.07577 72.22699 20945 ft 448 kts 90°
2026-04-26 17:53 62.07965 72.29294 20393 ft 445 kts 89°
2026-04-26 17:53 62.08341 72.35740 19904 ft 441 kts 89°
2026-04-26 17:54 62.09080 72.48576 18879 ft 433 kts 88°
2026-04-26 17:54 62.09441 72.54910 18389 ft 430 kts 88°
2026-04-26 17:54 62.09790 72.61135 17901 ft 425 kts 87°
2026-04-26 17:54 62.10141 72.67414 17373 ft 422 kts 88°
2026-04-26 17:55 62.10480 72.73538 16871 ft 418 kts 88°
2026-04-26 17:55 62.10816 72.79641 16388 ft 413 kts 87°
2026-04-26 17:55 62.11145 72.85671 15933 ft 406 kts 86°
2026-04-26 17:55 62.11465 72.91559 15451 ft 398 kts 86°
2026-04-26 17:56 62.11778 72.97347 14998 ft 393 kts 86°
2026-04-26 17:56 62.12381 73.08745 14100 ft 382 kts 85°
2026-04-26 17:57 62.12962 73.19830 13270 ft 371 kts 85°
2026-04-26 17:57 62.13240 73.25216 12876 ft 365 kts 85°
2026-04-26 17:57 62.13514 73.30546 12492 ft 360 kts 85°
2026-04-26 17:57 62.13782 73.35826 12116 ft 355 kts 85°
2026-04-26 17:58 62.14542 73.51083 10766 ft 336 kts 84°
2026-04-26 17:59 62.15146 73.60730 9891 ft 323 kts 72°
2026-04-26 17:59 62.16058 73.64988 9622 ft 310 kts 57°
2026-04-26 17:59 62.17202 73.68756 9401 ft 299 kts 56°
2026-04-26 17:59 62.18337 73.72423 9064 ft 292 kts 56°
2026-04-26 18:00 62.19343 73.76096 8717 ft 287 kts 69°
2026-04-26 18:00 62.19625 73.80263 8371 ft 282 kts 96°
2026-04-26 18:00 62.19042 73.84174 8001 ft 278 kts 122°
2026-04-26 18:00 62.17866 73.87426 7651 ft 273 kts 129°
2026-04-26 18:01 62.16662 73.90493 7303 ft 269 kts 129°
2026-04-26 18:01 62.15467 73.93532 6954 ft 265 kts 129°
2026-04-26 18:01 62.14291 73.96537 6488 ft 264 kts 129°
2026-04-26 18:01 62.13131 73.99517 5964 ft 260 kts 128°
2026-04-26 18:02 62.11988 74.02461 5439 ft 256 kts 128°
2026-04-26 18:02 62.11626 74.03394 5270 ft 255 kts 128°
2026-04-26 18:02 62.09766 74.08195 4389 ft 249 kts 128°
2026-04-26 18:02 62.08682 74.10989 3865 ft 246 kts 128°
2026-04-26 18:03 62.07598 74.13769 3339 ft 243 kts 128°
2026-04-26 18:03 62.06519 74.16526 2819 ft 240 kts 128°
2026-04-26 18:03 62.05468 74.19224 2307 ft 241 kts 128°
2026-04-26 18:03 62.04406 74.21946 2053 ft 233 kts 128°
2026-04-26 18:04 62.03402 74.24535 2050 ft 225 kts 124°
2026-04-26 18:04 62.02754 74.27496 2049 ft 222 kts 100°
2026-04-26 18:04 62.02487 74.30711 2049 ft 218 kts 97°
2026-04-26 18:05 62.02037 74.36789 2042 ft 202 kts 97°
2026-04-26 18:05 62.01809 74.39712 2046 ft 201 kts 98°
2026-04-26 18:05 62.01654 74.41649 2049 ft 195 kts 98°
2026-04-26 18:05 62.01386 74.45364 2097 ft 190 kts 89°
2026-04-26 18:06 62.01835 74.47856 2034 ft 185 kts 41°
2026-04-26 18:06 62.03027 74.48753 2062 ft 189 kts
2026-04-26 18:06 62.04355 74.48722 2066 ft 190 kts
2026-04-26 18:06 62.05671 74.48777 2059 ft 190 kts
2026-04-26 18:07 62.06968 74.48985 2053 ft 189 kts
2026-04-26 18:07 62.08281 74.49328 2051 ft 189 kts
2026-04-26 18:07 62.09128 74.49618 2025 ft 184 kts 10°
2026-04-26 18:07 62.09940 74.49925 1901 ft 174 kts 10°
2026-04-26 18:08 62.11779 74.50635 1531 ft 150 kts 11°
2026-04-26 18:08 62.12764 74.51006 1298 ft 137 kts 10°
2026-04-26 18:08 62.13668 74.51346 1114 ft 132 kts 10°
2026-04-26 18:08 62.14569 74.51685 945 ft 131 kts 10°
2026-04-26 18:09 62.15171 74.51914 830 ft 131 kts 10°
2026-04-26 18:09 62.16369 74.52361 589 ft 130 kts 10°
2026-04-26 18:09 62.17255 74.52693 408 ft 130 kts 10°
2026-04-26 18:09 62.18138 74.53027 235 ft 127 kts 10°
2026-04-26 18:10 62.18906 74.53355 227 ft 91 kts 14°
2026-04-26 18:10 62.19350 74.53655 227 ft 42 kts 21°
2026-04-26 18:10 62.19465 74.53757 227 ft 0 kts 24°
2026-04-26 18:12 62.19516 74.53745 229 ft 14 kts 334°
2026-04-26 18:12 62.19621 74.53621 229 ft 16 kts 347°
2026-04-26 18:12 62.19731 74.53580 229 ft 16 kts 319°
2026-04-26 18:12 62.19758 74.53446 229 ft 6 kts 278°
2026-04-26 18:13 62.19761 74.53333 229 ft 8 kts 252°
2026-04-26 18:13 62.19711 74.53260 229 ft 9 kts 190°
2026-04-26 18:13 62.19639 74.53234 229 ft 11 kts 189°
2026-04-26 18:13 62.19612 74.53224 229 ft 11 kts 189°
2026-04-26 18:14 62.19569 74.53136 229 ft 6 kts 278°
2026-04-26 18:14 62.19573 74.53082 229 ft 0 kts 279°